Theta_e
352 345 337 325 322 323 326 329 334 338 340 340 339 337 334 329 327 327 328 332 333 332 338 341 341 341 340 337 334 334 335 336 338 341 341 341 342 341 339 336 332 336 324
352 351 339 329 325 323 322 324 326 332 336 339 339 338 337 335 330 329 328 328 330 333 334 336 342 342 341 340 338 337 337 337 337 339 341 342 342 343 343 341 338 334 328
352 351 342 335 328 327 323 323 325 326 327 327 329 332 334 335 332 330 331 331 331 331 331 332 334 335 335 335 335 334 336 337 338 338 340 346 348 343 342 343 343 340 336
353 353 347 339 336 330 328 323 324 324 325 325 325 325 326 328 329 330 332 332 332 331 330 330 331 330 330 329 329 330 331 333 336 339 341 347 345 344 344 343 343 344 342
353 352 338 336 338 337 332 328 323 324 324 325 325 325 325 326 327 328 329 330 330 329 330 330 330 331 332 332 331 329 329 331 332 335 346 346 347 344 343 345 346 346 346
356 353 342 337 334 334 337 334 332 327 324 324 325 326 326 326 326 326 326 326 326 327 328 328 329 331 332 332 331 329 328 328 330 341 345 345 346 346 343 344 346 347 347
355 352 341 336 332 330 331 337 336 334 334 331 327 326 327 327 328 328 328 328 328 328 327 327 327 326 326 328 329 328 326 326 327 338 340 344 345 346 342 345 345 347 347
351 347 339 332 327 325 327 330 335 337 337 336 336 335 332 329 327 328 329 330 330 330 331 331 331 330 329 327 326 326 325 325 326 335 336 338 340 340 331 335 338 339 345
342 343 334 334 330 328 326 328 330 333 335 337 337 337 337 337 337 334 331 329 329 330 331 332 333 333 333 332 331 329 327 326 326 334 334 335 336 332 326 326 329 332 335
338 339 344 348 348 348 338 330 328 329 332 334 335 336 336 336 336 336 336 337 336 335 334 333 332 333 334 335 335 333 331 330 327 335 335 334 334 329 322 321 321 325 331
337 336 334 334 335 335 334 340 341 338 336 335 334 334 333 341 344 345 348 343 341 340 339 337 334 333 332 331 331 331 331 333 338 337 336 336 335 328 325 323 321 320 322
328 327 326 325 324 324 322 320 321 321 322 325 328 332 337 340 342 342 342 341 342 339 337 338 339 339 339 341 344 344 342 340 337 337 336 336 335 326 326 327 325 323 321
326 325 324 319 319 323 321 323 319 319 319 321 319 318 319 319 328 333 335 337 340 340 341 343 345 345 345 346 345 345 345 345 345 341 337 336 336 331 336 330 327 327 324
325 324 323 319 317 317 321 322 322 323 323 323 316 315 316 323 326 327 329 330 332 334 337 338 338 340 343 344 345 345 342 343 343 344 344 342 342 341 341 341 337 327 326
324 324 323 319 318 318 319 318 316 320 320 320 322 317 316 322 317 322 322 322 325 328 330 331 332 334 337 339 340 341 341 341 344 345 346 346 345 343 342 343 336 329 330
324 325 321 321 320 321 320 318 319 317 321 322 322 317 318 318 315 322 322 321 320 320 320 320 322 327 330 334 336 339 341 342 342 343 347 347 347 345 341 343 342 337 338
326 322 321 321 320 320 319 322 321 324 323 324 324 319 316 316 317 317 323 322 321 321 321 319 319 319 320 324 331 335 337 340 342 343 345 346 346 347 343 340 342 341 340
327 323 321 324 324 320 320 320 323 325 325 325 325 325 324 322 322 322 323 323 323 323 321 320 319 318 317 318 321 326 332 335 339 341 342 345 346 343 344 341 341 340 340
323 324 322 321 324 326 321 320 320 321 324 326 326 326 325 324 323 324 323 323 323 323 321 320 319 318 317 317 317 319 323 329 334 336 339 342 343 344 343 342 342 341 338
328 322 321 322 321 320 320 320 325 327 327 326 326 326 327 326 325 324 323 323 322 321 319 318 318 317 317 318 318 317 318 320 327 333 336 339 340 342 343 343 342 340 336
326 323 322 322 321 321 322 327 326 325 326 326 326 326 326 326 325 324 322 320 319 318 317 317 317 316 317 317 317 318 318 318 321 326 331 334 336 340 340 342 344 342 340
330 329 332 328 326 324 325 328 326 325 327 327 326 326 325 324 322 320 318 317 317 316 316 316 316 316 317 317 317 318 319 318 319 323 327 331 334 335 337 338 340 342 341
331 332 332 327 324 324 323 323 326 327 326 325 324 323 321 319 317 316 315 314 314 314 314 315 315 316 317 318 319 318 319 319 319 321 325 328 332 334 334 336 337 339 341
332 329 324 322 321 320 319 322 322 321 323 322 319 317 316 315 314 313 312 312 312 313 312 312 312 313 314 315 318 319 319 320 322 323 323 328 335 336 338 337 336 340 342
326 324 320 320 319 320 321 321 320 318 317 316 315 314 313 311 311 310 310 310 310 309 309 308 307 308 311 311 313 316 320 320 322 322 323 323 327 333 334 338 338 339 342
326 324 320 320 320 320 319 318 316 314 313 311 310 310 310 309 308 308 309 308 307 307 307 307 307 307 307 308 310 313 316 319 320 321 322 324 325 327 332 333 336 338 339
Wind_Speed
6 5 7 7 8 8 9 9 9 8 8 8 7 7 7 7 7 7 8 8 8 8 5 3 2 2 1 0 1 0 1 2 3 4 5 6 8 10 12 13 13 6 9
7 5 7 7 7 7 7 7 8 8 8 7 6 6 5 6 7 7 7 6 6 6 5 4 4 4 4 4 4 4 4 4 4 4 5 3 4 7 8 10 11 8 10
8 6 7 8 8 8 8 8 8 7 6 5 5 5 5 5 6 6 5 4 4 4 5 6 7 6 6 6 7 7 7 8 7 6 4 1 6 6 6 7 8 9 10
8 8 6 6 7 7 8 8 8 8 7 7 6 4 4 4 5 5 5 4 5 6 6 7 8 9 9 9 9 10 10 10 10 9 7 6 7 9 6 5 6 6 8
8 7 6 6 5 5 6 7 7 7 7 6 5 5 4 4 4 5 5 6 7 8 9 10 11 12 12 12 12 12 12 12 12 12 9 9 10 13 11 9 9 7 8
9 6 5 4 4 4 4 5 5 6 6 5 4 4 4 4 5 5 6 7 8 9 10 11 13 14 14 14 15 15 15 15 15 12 12 13 16 17 16 13 11 11 9
8 7 5 5 4 4 5 5 5 5 4 4 5 5 5 6 7 8 9 9 10 12 13 13 14 15 16 16 17 17 17 17 17 14 15 16 15 22 18 16 15 13 13
8 7 4 4 3 2 3 4 5 6 6 6 6 7 8 9 10 12 13 14 14 15 16 17 17 18 18 19 19 19 20 20 20 18 18 18 19 25 19 19 19 18 17
10 8 5 4 3 2 1 1 3 5 7 9 9 10 11 13 13 14 16 17 19 19 20 21 21 21 21 21 22 22 22 22 23 20 20 20 21 26 21 21 21 21 20
11 10 9 9 6 6 4 3 3 4 5 8 10 12 13 13 16 16 17 19 22 23 24 25 26 25 25 25 25 25 25 26 27 23 23 23 27 28 22 23 22 22 22
10 10 9 8 7 6 7 6 7 8 10 10 12 15 14 9 12 14 17 22 24 25 26 27 28 28 28 29 29 29 28 29 24 24 24 24 31 26 24 25 25 24 24
10 10 10 10 11 10 11 11 11 11 10 12 13 15 13 15 17 19 19 23 24 25 26 26 27 27 27 26 23 24 25 23 25 26 26 28 33 28 26 27 27 27 26
10 10 11 13 14 11 11 10 10 9 10 13 15 16 18 18 15 12 14 14 15 18 18 17 19 21 21 22 23 23 24 25 25 25 27 30 35 29 27 30 30 28 27
10 11 11 13 15 16 11 11 11 10 10 9 14 16 15 11 12 14 13 15 15 15 17 17 18 19 21 23 25 27 27 28 28 28 27 30 34 28 26 27 30 30 29
12 12 11 12 12 14 15 16 18 12 10 12 12 17 19 13 16 12 13 14 15 16 17 18 19 20 21 22 24 26 27 28 29 30 29 28 32 30 26 26 26 28 28
11 11 9 8 8 7 8 10 11 11 9 9 10 16 16 15 19 13 14 15 15 16 17 19 21 22 24 24 25 26 27 28 29 29 29 29 31 31 27 26 24 25 25
8 7 5 3 5 6 6 5 5 5 6 7 8 14 18 19 20 23 17 18 17 18 20 21 21 22 23 25 27 27 28 29 30 30 31 31 28 30 31 29 28 26 26
8 6 3 3 4 6 8 10 9 9 9 10 11 11 13 15 16 20 20 22 22 24 24 24 24 24 24 25 27 28 28 28 30 31 31 29 30 29 28 29 29 27 26
10 8 7 6 6 8 12 14 16 17 16 14 15 15 16 17 18 20 23 25 26 27 27 27 27 25 27 27 27 28 29 30 30 31 33 32 31 30 28 28 29 32 30
13 12 11 10 11 14 16 20 18 17 17 17 18 18 19 20 22 23 27 29 29 32 32 32 32 32 30 29 29 30 30 31 32 32 32 34 35 32 31 29 27 27 30
14 14 14 15 17 19 19 17 19 21 22 22 21 22 23 24 26 26 29 32 34 36 37 36 34 33 31 28 29 30 30 31 32 34 34 35 35 35 35 31 29 26 26
15 15 15 19 20 23 21 18 23 25 23 23 25 25 25 25 28 32 35 36 34 35 35 34 33 32 31 26 29 29 32 30 29 31 32 34 35 34 35 34 31 29 27
15 14 14 19 22 23 26 21 17 17 20 23 27 29 32 31 36 39 39 35 31 30 32 30 29 29 32 29 27 28 22 25 22 23 27 28 29 33 34 34 31 29 29
12 14 17 17 18 20 21 15 19 22 22 25 34 33 36 35 34 35 32 31 31 29 30 29 29 28 27 28 26 28 33 32 29 24 24 22 21 25 27 28 28 28 26
6 8 13 14 14 13 15 18 23 27 29 31 33 36 35 35 29 30 30 30 28 27 25 27 29 31 34 34 30 30 29 31 29 30 31 27 25 22 25 24 23 20 18
2 2 7 8 11 14 18 24 30 35 39 40 36 34 32 30 30 28 26 27 27 28 26 27 26 26 27 28 30 35 29 29 27 28 30 30 28 27 23 23 26 25 21
Wind_Direction
126 137 117 127 136 137 134 134 140 148 151 148 141 135 142 151 156 156 158 164 168 175 175 181 188 172 174 155 173 216 308 341 358 358 353 18 33 40 42 42 50 31 28
130 144 132 114 114 121 124 125 130 144 152 158 160 164 172 173 172 174 173 177 186 209 239 249 245 245 251 263 266 261 271 285 301 319 336 330 2 19 27 35 41 26 24
134 127 146 141 128 120 125 130 129 135 144 152 167 180 188 192 191 190 193 202 222 243 257 266 269 270 271 270 270 270 273 280 284 288 294 280 284 317 346 10 23 25 22
129 128 133 138 135 132 130 137 139 140 144 151 157 169 182 189 197 209 222 238 257 266 268 270 276 278 278 276 272 272 273 275 277 279 282 280 262 280 302 317 337 355 4
115 121 131 136 148 156 148 144 150 151 147 147 150 157 163 176 196 214 236 253 265 273 278 281 283 284 283 280 277 275 273 273 275 278 269 263 266 269 279 290 301 316 335
133 119 128 120 137 167 185 174 163 163 167 171 180 186 195 205 218 233 247 258 267 271 275 279 281 281 280 279 279 277 274 272 271 273 271 264 265 253 269 278 283 293 302
132 113 145 139 143 163 181 197 202 199 198 202 212 228 238 240 246 251 255 260 265 268 271 274 275 277 276 275 275 274 273 271 270 263 260 260 256 267 264 269 273 277 283
128 113 112 112 111 133 171 196 212 223 229 238 244 248 256 262 260 260 260 259 260 263 266 268 270 272 274 272 270 271 272 271 270 266 260 254 255 256 262 263 266 269 271
105 105 117 105 97 95 110 227 240 249 249 250 254 258 258 259 265 268 270 271 271 266 266 267 267 268 267 270 272 270 269 268 267 259 258 259 256 261 259 261 261 263 264
103 93 81 88 85 77 2 334 304 280 274 268 264 263 269 276 275 275 277 282 275 277 276 274 272 270 269 268 266 266 267 267 264 260 259 257 254 258 263 261 260 260 261
92 86 86 77 61 46 25 3 335 308 300 292 287 283 286 292 284 286 280 282 286 284 281 279 277 276 275 273 270 269 268 264 260 260 258 255 256 262 261 262 260 259 258
100 90 78 65 51 39 25 10 356 342 324 310 303 302 293 289 289 290 295 290 291 287 287 289 285 281 277 278 276 283 278 263 259 257 256 254 256 261 261 260 258 257 256
103 90 73 56 57 60 41 36 13 346 338 330 321 314 310 309 297 306 303 301 296 298 300 287 286 289 279 272 270 271 271 266 264 260 258 258 262 262 260 259 258 258 257
117 101 89 63 55 51 52 40 27 21 19 12 354 354 345 339 324 315 311 306 303 296 291 297 286 281 276 274 270 270 267 265 264 262 261 259 263 263 261 262 260 254 255
116 115 105 86 64 47 46 34 31 33 14 7 8 2 5 4 354 344 334 327 310 301 299 294 291 288 284 282 278 273 269 265 262 261 260 259 262 262 257 257 260 249 250
134 128 109 95 61 56 46 36 34 29 17 7 355 349 350 352 346 348 340 331 326 317 310 305 296 290 288 281 276 273 269 266 263 263 260 261 263 266 256 256 252 249 253
152 144 103 80 30 17 359 353 335 348 329 332 330 336 333 332 329 331 327 326 322 318 318 309 303 298 292 284 280 279 270 268 265 263 260 256 257 265 263 255 252 248 248
191 197 175 221 270 327 321 320 311 306 307 305 303 304 305 315 314 317 315 314 308 314 311 305 302 296 292 286 279 273 270 269 261 260 260 258 259 252 258 261 254 250 253
212 221 240 266 275 285 303 307 306 303 304 298 296 298 295 299 302 302 306 305 302 303 303 301 299 295 291 287 283 278 272 266 265 259 257 256 255 254 253 256 260 254 252
229 239 255 271 282 289 294 298 299 297 298 297 295 296 292 296 297 296 299 299 297 297 295 292 287 289 285 284 281 276 270 264 259 257 255 252 251 251 252 250 250 260 256
238 253 267 274 280 284 287 288 291 293 293 290 292 291 292 294 296 295 298 297 294 292 288 285 287 286 282 279 279 277 275 272 265 258 253 250 249 248 248 248 249 247 250
246 259 268 272 276 278 282 285 287 287 285 284 287 292 294 296 295 296 295 294 291 289 285 284 282 281 278 273 269 273 277 273 263 259 253 250 248 246 247 246 247 247 243
254 266 270 270 276 278 280 294 298 296 296 294 292 289 292 291 294 295 296 294 290 288 287 283 280 277 277 273 264 258 269 263 273 263 252 248 247 245 245 246 245 246 242
257 253 269 276 279 282 289 293 297 303 300 293 297 296 291 295 293 295 295 293 291 286 279 279 277 266 267 267 265 259 255 259 267 274 256 254 246 248 245 243 244 242 239
243 256 274 279 285 290 298 301 303 301 299 300 299 297 297 301 297 294 294 293 290 287 283 278 279 273 263 263 263 259 258 255 251 252 258 254 251 243 243 242 232 234 234
179 261 274 287 293 301 303 303 305 306 306 305 305 305 305 298 298 298 296 289 294 293 293 288 281 278 279 267 260 254 252 252 250 246 251 250 251 249 251 234 238 235 233